{"data":{"norad_id":64023,"intl_designator":"2025-102B","name":"STARLINK-34087","alt_names":[],"object_type":"PAYLOAD","status":"ACTIVE","operator":null,"country":"US","launch_date":"2025-05-16","launch_site_code":"AFWTR","launch_vehicle":null,"mission":null,"orbit_class":"UNKNOWN","rcs_meters":null,"size_class":null,"mass_kg":null,"dimensions":null,"purposes":["comms"],"wikipedia_slug":null,"has_3d_model":false,"image_url":null,"decayed_at":null,"tle_current":{"epoch":"2026-05-24T19:44:16.770048Z","epoch_age_seconds":86444,"freshness":"FRESH","line1":"1 64023U 25102B   26144.82241632  .00003098  00000+0  26725-3 0  9994","line2":"2 64023  70.0008 282.5957 0002671 271.6037  88.4816 14.98338879 57368","mean_motion":14.98338879,"eccentricity":0.0002671,"inclination_deg":70.0008,"raan_deg":282.5957,"arg_perigee_deg":271.6037,"mean_anomaly_deg":88.4816,"bstar":0.00026725,"rev_number":5736,"period_min":96.106429605635,"perigee_km":570.17204431765,"apogee_km":573.88482269223,"semimajor_km":6950.1654335049,"source":"CELESTRAK","updated_at":"2026-05-25T13:38:20.224255Z"}}}